Weather History for Volk, WI

Change the Weather History Date:

Monday, June 16, 2014

  Actual Average Record
Temperature  
Mean Temperature 70 °F -  
Max Temperature 85 °F 73 °F 87 °F (2006)
Min Temperature 54 °F 60 °F 45 °F (2011)
Cooling Degree Days 5    
Growing Degree Days 20 (Base 50)    
Moisture  
Dew Point 60 °F    
Average Humidity 79    
Maximum Humidity 100    
Minimum Humidity 37    
Precipitation  
Precipitation 0.48 in - - ()
Sea Level Pressure  
Sea Level Pressure 29.89 in    
Wind  
Wind Speed 8 mph (South)    
Max Wind Speed 17 mph    
Max Gust Speed 22 mph    
Visibility 9 miles    
Events Rain , Thunderstorm    
Averages and records for this station are not official NWS values.
T = Trace of Precipitation, MM = Missing Value Source: NWS Daily Summary

Daily Weather History Graph

Daily Weather History Graph

Search for Another Location

Airport:

Trip Planner

Search our weather history database for the weather conditions in past years. The results will help you decide how hot, cold, wet, or windy it might be!

Date:

Astronomy

Jun. 16, 2014 Rise Set
Actual Time 5:17 AM CDT 8:45 PM CDT
Civil Twilight 4:41 AM CDT 9:22 PM CDT
Nautical Twilight 3:53 AM CDT 10:09 PM CDT
Astronomical Twilight 2:53 AM CDT 11:10 PM CDT
Moon 11:28 PM CDT (6/16) 9:29 AM CDT (6/16)
Length of Visible Light 16h 40m
Length of Day
15h 28m
Waning Gibbous, 83% of the Moon is Illuminated
Jun 16
Waning Gibbous
Jun 19
Last Quarter
Jun 27
New
Jul 5
First Quarter
Jul 12
Full

Hourly Weather History & Observations

Time (CDT) Temp. Heat Index Dew Point Humidity Pressure Visibility Wind Dir Wind Speed Gust Speed Precip Events Conditions
12:58 AM 58.3 °F - 54.9 °F 88% 29.92 in 10.0 mi SW 4.6 mph - N/A   Clear
1:58 AM 54.1 °F - 54.1 °F 100% 29.94 in 3.0 mi SW 4.6 mph - N/A   Clear
2:58 AM 54.0 °F - 54.0 °F 100% 29.94 in 4.0 mi SSW 5.8 mph - N/A   Clear
3:58 AM 55.8 °F - 54.3 °F 95% 29.95 in 10.0 mi SSW 8.1 mph - N/A   Clear
4:58 AM 54.9 °F - 54.0 °F 97% 29.96 in 10.0 mi SSW 8.1 mph - N/A   Clear
5:58 AM 58.8 °F - 55.0 °F 87% 29.97 in 10.0 mi SW 3.5 mph - N/A   Clear
6:58 AM 64.4 °F - 56.3 °F 75% 29.99 in 10.0 mi SW 6.9 mph - N/A   Clear
7:58 AM 69.8 °F - 59.0 °F 68% 30.00 in 10.0 mi Variable 2.3 mph - N/A   Clear
8:58 AM 75.2 °F - 59.0 °F 57% 30.00 in 10.0 mi South 4.6 mph - N/A   Clear
9:58 AM 78.8 °F - 59.0 °F 51% 29.99 in 10.0 mi South 8.1 mph - N/A   Scattered Clouds
10:58 AM 80.6 °F 81.1 °F 59.0 °F 48% 29.98 in 10.0 mi SW 10.4 mph - N/A   Scattered Clouds
11:58 AM 82.4 °F 82.0 °F 57.2 °F 42% 29.98 in 10.0 mi SSE 11.5 mph 18.4 mph N/A   Scattered Clouds
12:31 PM 84.2 °F 83.5 °F 57.2 °F 40% 29.97 in 10.0 mi South 13.8 mph 20.7 mph N/A   Clear
12:58 PM 84.2 °F 83.5 °F 57.2 °F 40% 29.95 in 10.0 mi SSE 17.3 mph 21.9 mph N/A   Mostly Cloudy
1:58 PM 86.0 °F 84.9 °F 57.2 °F 37% 29.97 in 10.0 mi South 12.7 mph 18.4 mph N/A   Mostly Cloudy
2:58 PM 84.2 °F 83.5 °F 57.2 °F 40% 29.96 in 10.0 mi SSW 9.2 mph 19.6 mph N/A   Mostly Cloudy
3:58 PM - - - N/A% 29.91 in 10.0 mi South 10.4 mph - N/A   Mostly Cloudy
10:58 PM 64.8 °F - 64.8 °F 100% 29.78 in 5.0 mi SSE 10.4 mph - 0.32 in Rain , Thunderstorm Heavy Thunderstorms and Rain
11:02 PM 64.4 °F - 64.4 °F 100% 29.78 in 5.0 mi SSE 11.5 mph 19.6 mph N/A Rain , Thunderstorm Rain
11:05 PM 64.4 °F - 64.4 °F 100% 29.78 in 5.0 mi SSE 10.4 mph 19.6 mph N/A Rain , Thunderstorm Thunderstorms and Rain
11:15 PM 64.4 °F - 64.4 °F 100% 29.79 in 9.0 mi South 11.5 mph - N/A Rain , Thunderstorm Light Thunderstorms and Rain
11:20 PM 64.4 °F - 64.4 °F 100% 29.79 in 9.0 mi South 11.5 mph 17.3 mph N/A Rain , Thunderstorm Thunderstorms and Rain
11:27 PM 64.4 °F - 64.4 °F 100% 29.79 in 9.0 mi South 11.5 mph 17.3 mph N/A Rain Light Rain
11:37 PM 64.4 °F - 64.4 °F 100% 29.78 in 10.0 mi SSE 9.2 mph - N/A Rain , Thunderstorm Light Rain
11:52 PM 64.4 °F - 64.4 °F 100% 29.73 in 10.0 mi ESE 11.5 mph - N/A Rain , Thunderstorm Light Rain
11:57 PM 64.4 °F - 64.4 °F 100% 29.74 in 10.0 mi SSE 6.9 mph - N/A Rain Light Rain
11:58 PM 64.4 °F - 64.4 °F 100% 29.74 in 10.0 mi SSE 5.8 mph - 0.16 in Rain Light Rain